#timestamp,LO_Frequency,Hit,StdDev 
1626872415.8,286047001.9,N
1626872435.6,286047004.1,Y
1626872455.5,286047001.9,P
1626872475.3,286047003.9,P
1626872495.1,286047003.4,P
1626872515.9,286047006.0,Y
1626872535.7,286047001.7,P
1626872555.6,286047003.6,P
1626872575.4,286047002.9,P
1626872595.2,286047005.6,Y
1626872615.1,286047002.4,P
1626872616.0,286047002.4,P
1626872635.8,286047001.6,P
1626872655.7,286047001.5,Y
1626872675.5,286046998.1,P
1626872695.4,286046999.9,N
1626872715.3,286047000.3,N
1626872735.1,286047001.2,N
1626872755.8,286047000.5,N
1626872775.7,286046998.2,N
1626872795.5,286046998.2,N
1626872815.4,286047000.3,N
1626872835.2,286047002.6,N
1626872855.0,286047002.0,N
1626872855.9,286047002.0,N
1626872875.8,286047001.8,N
1626872895.6,286047000.2,N
1626872915.4,286047000.5,N
1626872935.3,286047000.1,N
1626872955.1,286047000.3,N
1626872975.9,286047000.5,N
1626872995.7,286046998.8,N
1626873015.5,286046996.9,N
1626873035.4,286046996.8,N
1626873055.2,286046996.9,N
1626873075.0,286046999.0,N
1626873075.9,286046999.0,N
1626873095.8,286047000.4,N
1626873115.6,286047000.2,N
1626873135.5,286047000.1,N
1626873155.3,286047000.0,N
1626873175.1,286047000.3,N
1626873195.9,286047000.3,N
1626873215.7,286046998.6,N
1626873235.5,286046998.7,N
1626873255.4,286046999.6,N
1626873275.2,286046996.9,N
1626873295.1,286046997.4,N
1626873296.0,286046997.4,N
1626873315.8,286046997.8,N
1626873335.6,286046997.9,N
1626873355.5,286046995.5,N
1626873375.3,286046995.8,N
1626873395.1,286046997.9,N
1626873415.9,286046995.5,N
1626873435.7,286046995.8,N
1626873455.6,286046993.9,Y
1626873475.4,286046995.9,P
1626873495.2,286046993.4,P
1626873515.1,286046994.1,N
1626873516.0,286046994.1,Y
1626873535.8,286046999.2,P
1626873555.7,286046997.7,N
1626873575.5,286046996.8,N
1626873595.3,286046995.3,Y
1626873615.2,286047000.9,P
1626873635.0,286046998.6,N
1626873635.9,286046998.6,N
1626873655.8,286046999.0,N
1626873675.6,286046999.1,N
1626873695.4,286046998.9,N
1626873715.3,286046999.1,N
1626873735.1,286046996.5,Y
1626873755.9,286046998.6,P
1626873775.7,286046998.5,P
1626873795.5,286046998.4,P
1626873815.4,286046998.5,Y
1626873835.2,286047002.4,P
1626873855.0,286047002.5,N
1626873856.0,286047002.5,N
1626873875.8,286047002.4,N
1626873895.6,286047002.4,N
1626873915.5,286047002.8,N
1626873935.3,286047002.6,N
1626873955.1,286047000.2,N
1626873975.9,286047000.4,N
1626873995.7,286047001.1,N
1626874015.5,286047001.2,N
1626874035.4,286047000.3,N
1626874055.2,286047000.2,N
1626874075.1,286047002.4,N
1626874076.0,286047002.4,N
1626874095.8,286047000.2,N
1626874115.6,286047002.3,N
1626874135.5,286046999.8,N
1626874155.3,286047000.1,N
1626874175.2,286047002.2,N
1626874195.9,286047002.7,N
1626874215.7,286047002.5,N
1626874235.6,286047002.6,N
1626874255.4,286047002.4,N
1626874275.2,286047000.2,N
1626874295.1,286047002.7,N
1626874296.0,286047002.7,N
1626874315.8,286047002.2,N
1626874335.7,286047001.3,N
1626874355.5,286047004.2,Y
1626874375.3,286047000.0,P
1626874395.2,286047002.1,N
1626874415.0,286047000.4,N
1626874415.9,286047000.4,N
1626874435.8,286047000.6,N
1626874455.6,286046999.9,N
1626874475.4,286047000.4,N
1626874495.3,286047000.4,N
1626874515.1,286047002.6,Y
1626874535.8,286047000.9,P
1626874555.7,286047000.8,P
1626874575.2,286047001.2,P
1626874595.9,286046998.2,Y
1626874615.7,286046999.0,P
1626874635.6,286046998.4,N
1626874655.4,286046999.0,N
1626874675.2,286046999.5,N
1626874695.1,286046996.5,Y
1626874696.0,286046996.5,P
1626874715.8,286046997.9,N
1626874735.7,286046995.4,P
1626874755.5,286046997.0,N
1626874775.3,286046996.8,N
1626874795.2,286046997.2,N
1626874815.0,286046997.7,N
1626874815.9,286046997.7,N
1626874835.7,286046997.0,N
1626874855.6,286046994.9,Y
1626874875.4,286046998.3,P
1626874895.3,286047001.2,N
1626874915.1,286047000.8,N
1626874935.8,286046998.8,N
1626874955.7,286047001.0,N
1626874975.5,286047001.2,N
1626874995.3,286047001.0,N
1626875015.2,286047000.6,N
1626875035.0,286047002.8,N
1626875035.9,286047002.8,N
1626875055.8,286047002.6,N
1626875075.6,286047001.6,N
1626875095.4,286047001.4,N
1626875115.3,286047001.5,N
1626875135.1,286047002.2,N
1626875155.9,286047001.6,N
1626875175.7,286047002.0,N
1626875195.5,286047002.0,N
1626875215.4,286047004.4,Y
1626875235.2,286047001.2,P
1626875255.0,286047001.2,P
1626875255.9,286047001.2,P
1626875275.8,286046999.9,N
1626875295.6,286047000.2,N
1626875315.5,286047000.2,N
1626875335.3,286047000.1,N
1626875355.1,286047000.5,N
1626875375.9,286047002.8,Y
1626875395.7,286046999.9,P
1626875415.5,286047000.9,N
1626875435.4,286046998.2,P
1626875455.2,286047000.4,N
1626875475.1,286047000.0,N
1626875476.0,286047000.0,N
1626875495.8,286046999.8,N
1626875515.6,286047000.7,N
1626875535.5,286047000.5,N
1626875555.3,286047000.6,N
1626875575.1,286047000.1,N
1626875595.9,286047004.0,Y
1626875615.7,286047002.5,P
1626875635.6,286047002.6,N
1626875655.4,286046999.8,N
1626875675.2,286046999.9,N
1626875695.1,286047004.4,Y
1626875696.0,286047004.4,P
1626875715.8,286047002.8,N
1626875735.7,286047002.7,N
1626875755.5,286047002.8,N
1626875775.3,286047002.3,N
1626875795.2,286047002.7,N
1626875815.0,286047002.4,N
1626875815.9,286047002.4,N
1626875835.7,286047002.2,N
1626875855.6,286047001.7,N
1626875875.4,286047002.6,Y
1626875895.3,286047001.2,P
1626875915.1,286047000.9,N
1626875935.9,286047000.8,N
1626875955.7,286047000.2,N
1626875975.5,286047002.1,N
1626875995.4,286047000.1,N
